STARLINK-11266, 60732

Orbit data source: Space-Track

STARLINK-11266, 60732 is a payload satellite owned by SpaceX/Seattle (US) in LEO that was launched on Wed, 28 Aug 2024 UTC via an FALCON 9 launch vehicle from the Air Force Eastern Test Range (AFETR). Payloads include a variety of satellites, spacecraft, and rockets equipped with specific instruments for various scientific and technological missions. These include communications satellites like Starlink; space stations such as the ISS; scientific satellites like the Hubble; Earth observation satellites from companies like Planet Labs, Umbra, and HawkEye 360; GPS; miniature CubeSats for education and research; and military/defense satellites.

Loading next visibility...
STARLINK-11266 details
Identifier
60732, 2024-152N
Orbit
LEO
Last TLE update19 hours ago
Origin
Flag of USSpaceX/Seattle (US)
ManufacturerSpaceX/Seattle
MissionOperational spacecraft
Bus & MotorSTARLINK V2M, Unknown motor
Mass730 kg wet, ~700 kg dry
Launch date (UTC)
2024-08-28 (4 months ago)
Launch vehicle
FALCON 9
Launch site
Air Force Eastern Test Range (AFETR)
Object type
Payload
Rocket body
Debris
Shape & HBRUnknown
Radar Cross SectionLarge (>1 m²)

Expand to show TLE details & history

TLE from 19 hours ago
0 STARLINK-11266
1 60732U 24152N   24355.81027573 -.00002285  00000-0 -14030-4 0  9995
2 60732  53.1591 144.0500 0000963 116.8756 243.2360 15.69677303 19120
Epoch: 2024-12-20T19:26Z
Definitive object data (Epoch: 2024-12-20T19:26:47.823Z)
Latitude-0.00003°
Longitude122.48027°
Altitude361.028 km
Speed7.694 km/s
True Right ascension09h 36m 11s
True Declination0° 00' 00"
Sunlit
Object was in full shadow at TLE epoch
Visualization TLE readout
Latitude48.58293°
Longitude176.27492°
Altitude364.894 km
Speed7.697 km/s
Apparent Right ascension00h 18m 49s
Apparent Declination65° 24' 57"
Sunlit
Object is in daylight
Visualization observer readout
Local Sidereal Time13:06:41
Azimuth5.142° NNE
Elevation15.744°
Doppler factor1
Orbital elements
Apogee altitude360.73 km
Perigee altitude359.432 km
Semi-major axis6,738.218 km
Eccentricity0.0000963
Inclination53.1591°
RAAN144.05°
Arg. of periapsis116.8756°
True anomaly243.22615°
Mean anomaly243.236°
Eccentric anomaly243.23107°
Mean motion3.92397 °/min
BSTAR-0.00001403
Orbital period91.74 mins
Loading maneuver chart data...
Loading historical data...
Loading historical data...
Loading historical data...
Loading historical data...
Loading historical data...
Loading historical data...
Loading historical data...

STARLINK-11266 Visibility forecast

Observer location: undefined°, undefined

Span
Click to sort rows by Start time (UTC) header in descending order
Start Az.
Max El. time (UTC)
Max El. Az.
Max El.
End time (UTC)
End Az.
4 mins2024-12-22 12:55:37.452Z266.528° W2024-12-22 12:56:37.452Z308.99° NW34.932°2024-12-22 12:59:37.452Z38.968° NE
|